Regional Weather Roundup
Issued by NWS Kansas City/Pleasant Hill, MO

Home | Current Version | Previous Version | Text Only | Print | Product List | Glossary On
Versions: 1 2 3 4 5 6 7 8 9 10 11 12 13 14 15 16 17 18 19 20 21 22 23 24 25 26 27 28 29 30 31 32 33 34 35 36 37 38 39 40 41 42 43 44 45 46 47 48 49 50
000
ASUS43 KEAX 200704
RWREAX

WEATHER ROUNDUP FOR EASTERN KANSAS AND NORTHWEST MISSOURI
NATIONAL WEATHER SERVICE KANSAS CITY/PLEASANT HILL MO
200 AM CDT SUN APR 20 2014

KSZ040-057-103>105-MOZ028-029-037-043-200800-
...KANSAS CITY METROPOLITAN AREA...

CITY           SKY/WX    TMP DP  RH WIND       PRES   REMARKS
K.C. INTL      PTCLDY    57  45  64 SE10      30.09S
K.C. DOWNTOWN  PTCLDY    65  45  48 CALM      30.09S
LEES SUMMIT    MOCLDY    62  44  51 S8        30.11S
OLATHE - IXD   PTCLDY    55  43  63 S5        30.11R
OLATHE - OJC   PTCLDY    56  44  64 SE3       30.10R
LAWRENCE       CLEAR     55  45  68 SE7       30.09R

$$

MOZ001>008-011>017-020>025-030>033-038>040-044>046-053-054-200800-
...NORTHERN AND CENTRAL MISSOURI...

CITY           SKY/WX    TMP DP  RH WIND       PRES   REMARKS
ST. JOSEPH     CLEAR     57  44  62 S6        30.08S
MOSBY          FAIR      52  46  82 CALM      30.10S
WHITEMAN AFB   MOCLDY    59  38  45 S6        30.12R
CLINTON        MOCLDY    61  46  59 S5        30.13S
SEDALIA        MOCLDY    59  43  55 S8        30.14R
WARSAW         NOT AVBL
MARSHALL         N/A     63  45  51 SE5       30.13S
CHILLICOTHE      N/A     54  45  71 CALM      30.11F
MOBERLY        MOCLDY    57  41  54 SE8       30.15S
KIRKSVILLE     PTCLDY    51  40  65 S7        30.13F

$$

MOZ041-047>049-056>058-063>065-088>090-097-200800-
...EASTERN AND SOUTHERN MISSOURI...

CITY           SKY/WX    TMP DP  RH WIND       PRES   REMARKS
ST. LOUIS INTL MOCLDY    61  40  45 SE3       30.18R
SPIRIT OF STL  PTCLDY    51  44  77 CALM      30.17R
COLUMBIA       PTCLDY    59  41  51 SE7       30.15R
JEFFERSON CITY PTCLDY    61  39  44 E7        30.15R
MEXICO         MOCLDY    52  45  76 SE7       30.16R
HANNIBAL       MOCLDY    63  36  36 SE8       30.16S
ROLLA          CLEAR     59  39  47 S9        30.15S
LEBANON        MOCLDY    59  41  51 S9        30.18R
OSAGE BEACH    MOCLDY    59  39  47 S5        30.17R
SPRINGFIELD    PTCLDY    58  44  60 S9        30.15R
BRANSON        PTCLDY    59  46  63 S8        30.18S
NEVADA         CLOUDY    55  46  71 S7        30.13F
JOPLIN         CLOUDY    58  47  66 S8        30.14R
WEST PLAINS    CLEAR     51  40  65 CALM      30.19R

$$

IAZ060-094-KSZ022-034>040-054-083-096-NEZ052-066-093-200800-
...KANSAS...SOUTHEAST NEBRASKA AND IOWA...

CITY           SKY/WX    TMP DP  RH WIND       PRES   REMARKS
TOPEKA         CLEAR     65  46  50 S13       30.07S
MANHATTAN      PTCLDY    65  47  52 S13       30.04R
EMPORIA        PTCLDY    59  46  62 S13       30.07R
CHANUTE        PTCLDY    56  46  69 SE7       30.10F
WICHITA        CLOUDY    63  49  60 S13       30.07R
OMAHA          MOCLDY    65  44  46 S16       29.99S
LINCOLN        PTCLDY    66  45  46 S16       29.98R
FALLS CITY     PTCLDY    63  45  51 S12       30.04S
LAMONI         MOCLDY    59  43  55 S6        30.08S
DES MOINES     CLOUDY    62  44  51 S8        30.06F

$$




USA.gov is the U.S. government's official web portal to all federal, state and local government web resources and services.